DEVICE NETWORK
Gateway Status
13 ESP · realtime ~1s · history 60s
Weather
WS-MOD-01
OFFLINE
Actuator
ACT-MOD-01
OFFLINE
Mainboard L3
MB-L3-01
OFFLINE
Mainboard L5
MB-L5-01
OFFLINE
Remote AC
AC-REMOTE-01
OFFLINE
PZEM L3-01
PWR-L3-01
OFFLINE
PZEM L3-02
PWR-L3-02
OFFLINE
PZEM L3-03
PWR-L3-03
OFFLINE
PZEM L3-04
PWR-L3-04
OFFLINE
PZEM L5-01
PWR-L5-01
OFFLINE
PZEM L5-02
PWR-L5-02
OFFLINE
PZEM L5-03
PWR-L5-03
OFFLINE
PZEM L5-04
PWR-L5-04
OFFLINE
REPORT FILTER
DATABASE HISTORY
Periode & Sensor
REPORT RESULT
Data Sensor
31/08/2026 — 06/09/2026
EXPORT CSV
| NO | TANGGAL | WAKTU | DEVICE | CHANNEL | SENSOR | VALUE | UNIT |
|---|---|---|---|---|---|---|---|
| 10601 | 02/09/2026 | 14:55:47 | MB-L5-01Mainboard Lantai 5 | L5-BGT-02 | Black Globe Temperature 2 | 29.90 | °C |
| 10602 | 02/09/2026 | 14:55:47 | MB-L3-01Mainboard Lantai 3 | L3-AI-02 | Analog Input 2 | 3.12 | V |
| 10603 | 02/09/2026 | 14:55:47 | MB-L5-01Mainboard Lantai 5 | L5-SHT-01-T | SHT20 1 Temperature | 32.30 | °C |
| 10604 | 02/09/2026 | 14:55:47 | MB-L3-01Mainboard Lantai 3 | L3-LUX-04 | Illuminance / LUX 4 | 102.40 | lux |
| 10605 | 02/09/2026 | 14:55:47 | MB-L5-01Mainboard Lantai 5 | L5-RAD-02 | Radiation 2 | 1.00 | W/m² |
| 10606 | 02/09/2026 | 14:55:47 | MB-L3-01Mainboard Lantai 3 | L3-HFT-02 | Heat Flow Temperature 2 | 29.00 | °C |
| 10607 | 02/09/2026 | 14:55:47 | MB-L5-01Mainboard Lantai 5 | L5-LUX-06 | Illuminance / LUX 6 | 247.20 | lux |
| 10608 | 02/09/2026 | 14:55:47 | MB-L5-01Mainboard Lantai 5 | L5-LUX-04 | Illuminance / LUX 4 | 225.80 | lux |
| 10609 | 02/09/2026 | 14:55:47 | MB-L3-01Mainboard Lantai 3 | L3-LUX-03 | Illuminance / LUX 3 | 153.80 | lux |
| 10610 | 02/09/2026 | 14:55:47 | MB-L3-01Mainboard Lantai 3 | L3-AI-03 | Analog Input 3 | 3.12 | V |
| 10611 | 02/09/2026 | 14:55:47 | MB-L5-01Mainboard Lantai 5 | L5-LUX-03 | Illuminance / LUX 3 | 179.80 | lux |
| 10612 | 02/09/2026 | 14:55:47 | MB-L5-01Mainboard Lantai 5 | L5-SHT-02-RH | SHT20 2 Humidity | 48.10 | %RH |
| 10613 | 02/09/2026 | 14:55:47 | MB-L3-01Mainboard Lantai 3 | L3-SHT-02-RH | SHT20 2 Humidity | 48.20 | %RH |
| 10614 | 02/09/2026 | 14:55:47 | MB-L5-01Mainboard Lantai 5 | L5-BGT-01 | Black Globe Temperature 1 | 29.90 | °C |
| 10615 | 02/09/2026 | 14:55:47 | MB-L5-01Mainboard Lantai 5 | L5-SHT-01-RH | SHT20 1 Humidity | 48.30 | %RH |
| 10616 | 02/09/2026 | 14:55:47 | MB-L3-01Mainboard Lantai 3 | L3-BGT-01 | Black Globe Temperature 1 | 29.70 | °C |
| 10617 | 02/09/2026 | 14:55:47 | MB-L3-01Mainboard Lantai 3 | L3-LUX-01 | Illuminance / LUX 1 | 30.70 | lux |
| 10618 | 02/09/2026 | 14:55:47 | MB-L3-01Mainboard Lantai 3 | L3-RAD-02 | Radiation 2 | 1.00 | W/m² |
| 10619 | 02/09/2026 | 14:55:47 | MB-L5-01Mainboard Lantai 5 | L5-SHT-03-RH | SHT20 3 Humidity | 48.50 | %RH |
| 10620 | 02/09/2026 | 14:55:47 | MB-L5-01Mainboard Lantai 5 | L5-HFT-02 | Heat Flow Temperature 2 | 30.00 | °C |
| 10621 | 02/09/2026 | 14:55:47 | MB-L5-01Mainboard Lantai 5 | L5-HFT-01 | Heat Flow Temperature 1 | 30.20 | °C |
| 10622 | 02/09/2026 | 14:55:47 | MB-L5-01Mainboard Lantai 5 | L5-AI-06 | Analog Input 6 | 3.05 | V |
| 10623 | 02/09/2026 | 14:55:47 | MB-L3-01Mainboard Lantai 3 | L3-AI-04 | Analog Input 4 | 3.12 | V |
| 10624 | 02/09/2026 | 14:55:45 | MB-L3-01Mainboard Lantai 3 | L3-LUX-05 | Illuminance / LUX 5 | 60.10 | lux |
| 10625 | 02/09/2026 | 14:55:45 | MB-L3-01Mainboard Lantai 3 | L3-ST-02 | Surface Temperature 2 | 29.70 | °C |
| 10626 | 02/09/2026 | 14:55:45 | MB-L5-01Mainboard Lantai 5 | L5-RAD-01 | Radiation 1 | 1.00 | W/m² |
| 10627 | 02/09/2026 | 14:55:45 | MB-L5-01Mainboard Lantai 5 | L5-AI-01 | Analog Input 1 | 3.05 | V |
| 10628 | 02/09/2026 | 14:55:45 | MB-L5-01Mainboard Lantai 5 | L5-SHT-02-T | SHT20 2 Temperature | 32.10 | °C |
| 10629 | 02/09/2026 | 14:55:45 | MB-L3-01Mainboard Lantai 3 | L3-AI-06 | Analog Input 6 | 3.12 | V |
| 10630 | 02/09/2026 | 14:55:45 | MB-L5-01Mainboard Lantai 5 | L5-LUX-01 | Illuminance / LUX 1 | 208.00 | lux |
| 10631 | 02/09/2026 | 14:55:45 | MB-L3-01Mainboard Lantai 3 | L3-LUX-06 | Illuminance / LUX 6 | 31.30 | lux |
| 10632 | 02/09/2026 | 14:55:45 | MB-L3-01Mainboard Lantai 3 | L3-AI-01 | Analog Input 1 | 3.12 | V |
| 10633 | 02/09/2026 | 14:55:45 | MB-L5-01Mainboard Lantai 5 | L5-LUX-05 | Illuminance / LUX 5 | 421.90 | lux |
| 10634 | 02/09/2026 | 14:55:45 | MB-L3-01Mainboard Lantai 3 | L3-SHT-01-T | SHT20 1 Temperature | 32.10 | °C |
| 10635 | 02/09/2026 | 14:55:45 | MB-L3-01Mainboard Lantai 3 | L3-HFT-01 | Heat Flow Temperature 1 | 29.40 | °C |
| 10636 | 02/09/2026 | 14:55:45 | MB-L5-01Mainboard Lantai 5 | L5-LUX-02 | Illuminance / LUX 2 | 117.90 | lux |
| 10637 | 02/09/2026 | 14:55:45 | MB-L5-01Mainboard Lantai 5 | L5-BGT-03 | Black Globe Temperature 3 | 29.90 | °C |
| 10638 | 02/09/2026 | 14:55:45 | MB-L5-01Mainboard Lantai 5 | L5-SHT-03-T | SHT20 3 Temperature | 32.10 | °C |
| 10639 | 02/09/2026 | 14:55:45 | MB-L3-01Mainboard Lantai 3 | L3-LUX-02 | Illuminance / LUX 2 | 44.60 | lux |
| 10640 | 02/09/2026 | 14:55:45 | MB-L3-01Mainboard Lantai 3 | L3-SHT-01-RH | SHT20 1 Humidity | 48.30 | %RH |
| 10641 | 02/09/2026 | 14:55:45 | MB-L5-01Mainboard Lantai 5 | L5-BGT-02 | Black Globe Temperature 2 | 29.90 | °C |
| 10642 | 02/09/2026 | 14:55:45 | MB-L3-01Mainboard Lantai 3 | L3-AI-02 | Analog Input 2 | 3.12 | V |
| 10643 | 02/09/2026 | 14:55:45 | MB-L5-01Mainboard Lantai 5 | L5-SHT-01-T | SHT20 1 Temperature | 32.30 | °C |
| 10644 | 02/09/2026 | 14:55:45 | MB-L3-01Mainboard Lantai 3 | L3-LUX-04 | Illuminance / LUX 4 | 108.30 | lux |
| 10645 | 02/09/2026 | 14:55:45 | MB-L5-01Mainboard Lantai 5 | L5-RAD-02 | Radiation 2 | 1.00 | W/m² |
| 10646 | 02/09/2026 | 14:55:45 | MB-L3-01Mainboard Lantai 3 | L3-HFT-02 | Heat Flow Temperature 2 | 28.90 | °C |
| 10647 | 02/09/2026 | 14:55:45 | MB-L5-01Mainboard Lantai 5 | L5-LUX-06 | Illuminance / LUX 6 | 239.60 | lux |
| 10648 | 02/09/2026 | 14:55:45 | MB-L5-01Mainboard Lantai 5 | L5-LUX-04 | Illuminance / LUX 4 | 225.80 | lux |
| 10649 | 02/09/2026 | 14:55:45 | MB-L3-01Mainboard Lantai 3 | L3-LUX-03 | Illuminance / LUX 3 | 147.50 | lux |
| 10650 | 02/09/2026 | 14:55:45 | MB-L3-01Mainboard Lantai 3 | L3-AI-03 | Analog Input 3 | 3.12 | V |
| 10651 | 02/09/2026 | 14:55:45 | MB-L5-01Mainboard Lantai 5 | L5-LUX-03 | Illuminance / LUX 3 | 176.70 | lux |
| 10652 | 02/09/2026 | 14:55:45 | MB-L3-01Mainboard Lantai 3 | L3-SHT-03-RH | SHT20 3 Humidity | 49.10 | %RH |
| 10653 | 02/09/2026 | 14:55:45 | MB-L5-01Mainboard Lantai 5 | L5-SHT-02-RH | SHT20 2 Humidity | 48.30 | %RH |
| 10654 | 02/09/2026 | 14:55:45 | MB-L3-01Mainboard Lantai 3 | L3-SHT-02-RH | SHT20 2 Humidity | 48.40 | %RH |
| 10655 | 02/09/2026 | 14:55:45 | MB-L5-01Mainboard Lantai 5 | L5-BGT-01 | Black Globe Temperature 1 | 30.00 | °C |
| 10656 | 02/09/2026 | 14:55:45 | MB-L5-01Mainboard Lantai 5 | L5-SHT-01-RH | SHT20 1 Humidity | 48.50 | %RH |
| 10657 | 02/09/2026 | 14:55:45 | MB-L3-01Mainboard Lantai 3 | L3-BGT-01 | Black Globe Temperature 1 | 29.70 | °C |
| 10658 | 02/09/2026 | 14:55:45 | MB-L3-01Mainboard Lantai 3 | L3-LUX-01 | Illuminance / LUX 1 | 29.80 | lux |
| 10659 | 02/09/2026 | 14:55:45 | MB-L3-01Mainboard Lantai 3 | L3-RAD-02 | Radiation 2 | 1.00 | W/m² |
| 10660 | 02/09/2026 | 14:55:45 | MB-L5-01Mainboard Lantai 5 | L5-SHT-03-RH | SHT20 3 Humidity | 48.70 | %RH |
| 10661 | 02/09/2026 | 14:55:45 | MB-L5-01Mainboard Lantai 5 | L5-HFT-02 | Heat Flow Temperature 2 | 30.00 | °C |
| 10662 | 02/09/2026 | 14:55:45 | MB-L3-01Mainboard Lantai 3 | L3-SHT-03-T | SHT20 3 Temperature | 31.70 | °C |
| 10663 | 02/09/2026 | 14:55:45 | MB-L5-01Mainboard Lantai 5 | L5-HFT-01 | Heat Flow Temperature 1 | 30.00 | °C |
| 10664 | 02/09/2026 | 14:55:45 | MB-L5-01Mainboard Lantai 5 | L5-AI-06 | Analog Input 6 | 3.05 | V |
| 10665 | 02/09/2026 | 14:55:45 | MB-L3-01Mainboard Lantai 3 | L3-AI-04 | Analog Input 4 | 3.12 | V |
| 10666 | 02/09/2026 | 14:55:45 | MB-L3-01Mainboard Lantai 3 | L3-BGT-02 | Black Globe Temperature 2 | 29.70 | °C |
| 10667 | 02/09/2026 | 14:55:45 | MB-L3-01Mainboard Lantai 3 | L3-RAD-01 | Radiation 1 | 1.00 | W/m² |
| 10668 | 02/09/2026 | 14:55:45 | MB-L5-01Mainboard Lantai 5 | L5-AI-05 | Analog Input 5 | 3.05 | V |
| 10669 | 02/09/2026 | 14:55:45 | MB-L3-01Mainboard Lantai 3 | L3-ST-01 | Surface Temperature 1 | 29.80 | °C |
| 10670 | 02/09/2026 | 14:55:45 | MB-L5-01Mainboard Lantai 5 | L5-AI-04 | Analog Input 4 | 3.05 | V |
| 10671 | 02/09/2026 | 14:55:45 | MB-L5-01Mainboard Lantai 5 | L5-ST-02 | Surface Temperature 2 | 30.40 | °C |
| 10672 | 02/09/2026 | 14:55:45 | MB-L5-01Mainboard Lantai 5 | L5-AI-03 | Analog Input 3 | 3.05 | V |
| 10673 | 02/09/2026 | 14:55:45 | MB-L3-01Mainboard Lantai 3 | L3-AI-05 | Analog Input 5 | 3.12 | V |
| 10674 | 02/09/2026 | 14:55:45 | MB-L3-01Mainboard Lantai 3 | L3-SHT-02-T | SHT20 2 Temperature | 32.10 | °C |
| 10675 | 02/09/2026 | 14:55:45 | MB-L5-01Mainboard Lantai 5 | L5-ST-01 | Surface Temperature 1 | 30.10 | °C |
| 10676 | 02/09/2026 | 14:55:45 | MB-L5-01Mainboard Lantai 5 | L5-AI-02 | Analog Input 2 | 3.05 | V |
| 10677 | 02/09/2026 | 14:55:45 | MB-L3-01Mainboard Lantai 3 | L3-BGT-03 | Black Globe Temperature 3 | 28.80 | °C |
| 10678 | 02/09/2026 | 14:55:44 | MB-L3-01Mainboard Lantai 3 | L3-HFT-01 | Heat Flow Temperature 1 | 29.40 | °C |
| 10679 | 02/09/2026 | 14:55:44 | MB-L3-01Mainboard Lantai 3 | L3-LUX-02 | Illuminance / LUX 2 | 44.60 | lux |
| 10680 | 02/09/2026 | 14:55:44 | MB-L3-01Mainboard Lantai 3 | L3-SHT-01-RH | SHT20 1 Humidity | 48.50 | %RH |
| 10681 | 02/09/2026 | 14:55:44 | MB-L3-01Mainboard Lantai 3 | L3-AI-02 | Analog Input 2 | 3.12 | V |
| 10682 | 02/09/2026 | 14:55:44 | MB-L3-01Mainboard Lantai 3 | L3-LUX-04 | Illuminance / LUX 4 | 99.70 | lux |
| 10683 | 02/09/2026 | 14:55:44 | MB-L3-01Mainboard Lantai 3 | L3-HFT-02 | Heat Flow Temperature 2 | 29.00 | °C |
| 10684 | 02/09/2026 | 14:55:44 | MB-L3-01Mainboard Lantai 3 | L3-LUX-03 | Illuminance / LUX 3 | 147.50 | lux |
| 10685 | 02/09/2026 | 14:55:44 | MB-L3-01Mainboard Lantai 3 | L3-AI-03 | Analog Input 3 | 3.12 | V |
| 10686 | 02/09/2026 | 14:55:44 | MB-L3-01Mainboard Lantai 3 | L3-SHT-03-RH | SHT20 3 Humidity | 49.10 | %RH |
| 10687 | 02/09/2026 | 14:55:44 | MB-L3-01Mainboard Lantai 3 | L3-SHT-02-RH | SHT20 2 Humidity | 48.40 | %RH |
| 10688 | 02/09/2026 | 14:55:44 | MB-L3-01Mainboard Lantai 3 | L3-BGT-01 | Black Globe Temperature 1 | 29.70 | °C |
| 10689 | 02/09/2026 | 14:55:44 | MB-L3-01Mainboard Lantai 3 | L3-LUX-01 | Illuminance / LUX 1 | 30.70 | lux |
| 10690 | 02/09/2026 | 14:55:44 | MB-L3-01Mainboard Lantai 3 | L3-RAD-02 | Radiation 2 | 1.00 | W/m² |
| 10691 | 02/09/2026 | 14:55:44 | MB-L3-01Mainboard Lantai 3 | L3-SHT-03-T | SHT20 3 Temperature | 31.70 | °C |
| 10692 | 02/09/2026 | 14:55:44 | MB-L3-01Mainboard Lantai 3 | L3-AI-04 | Analog Input 4 | 3.12 | V |
| 10693 | 02/09/2026 | 14:55:44 | MB-L3-01Mainboard Lantai 3 | L3-BGT-02 | Black Globe Temperature 2 | 29.70 | °C |
| 10694 | 02/09/2026 | 14:55:44 | MB-L3-01Mainboard Lantai 3 | L3-RAD-01 | Radiation 1 | 1.00 | W/m² |
| 10695 | 02/09/2026 | 14:55:44 | MB-L3-01Mainboard Lantai 3 | L3-ST-01 | Surface Temperature 1 | 29.70 | °C |
| 10696 | 02/09/2026 | 14:55:44 | MB-L3-01Mainboard Lantai 3 | L3-AI-05 | Analog Input 5 | 3.12 | V |
| 10697 | 02/09/2026 | 14:55:44 | MB-L3-01Mainboard Lantai 3 | L3-SHT-02-T | SHT20 2 Temperature | 32.00 | °C |
| 10698 | 02/09/2026 | 14:55:44 | MB-L3-01Mainboard Lantai 3 | L3-BGT-03 | Black Globe Temperature 3 | 28.90 | °C |
| 10699 | 02/09/2026 | 14:55:44 | MB-L3-01Mainboard Lantai 3 | L3-LUX-05 | Illuminance / LUX 5 | 56.30 | lux |
| 10700 | 02/09/2026 | 14:55:44 | MB-L3-01Mainboard Lantai 3 | L3-ST-02 | Surface Temperature 2 | 29.70 | °C |
Menampilkan maksimal 100 data per halaman